Powrót do katalogu

STARLINK-34164

AktywnyŁącznośćVLEO
NORAD 64177·PAYLOAD·🇺🇸 United States

Wystrzelony May 28, 2025 z Cape Canaveral Space Force Station

Loading…

Następne Przeloty (najbliższe 24 godziny)

TLE

ŚwieżeSource: CelesTrak SupGP

Epoka: Sep 15, 2026, 03:39 UTC

1 64177C 25113H   26258.15256944  .00001903  00000+0  56192-4 0  2583
2 64177  53.1577 290.5905 0001203  99.9189 125.7984 15.34402547    18

Śledź STARLINK-34164 w czasie rzeczywistym z AllMySat

Download on the App Store